Time,TemperatureF,DewpointF,PressureIn,WindDirection,WindDirectionDegrees,WindSpeedMPH,WindSpeedGustMPH,Humidity,HourlyPrecipIn,Conditions,Clouds,dailyrainin,SoftwareType,DateUTC
2014-02-03 00:01:00,-8.6,-14.9,30.39,East,90,3.0,3.7,73,0.00,,---,0.00,VWS V14.01,2014-02-03 06:01:00,
2014-02-03 00:06:00,-3.5,-9.0,30.38,SE,143,3.7,4.0,77,0.00,,---,0.00,VWS V14.01,2014-02-03 06:06:00,
2014-02-03 00:11:00,-7.4,-12.5,30.38,SE,124,2.8,4.0,78,0.00,,---,0.00,VWS V14.01,2014-02-03 06:11:00,
2014-02-03 00:16:00,-6.6,-12.0,30.38,SE,124,1.8,4.0,77,0.00,,---,0.00,VWS V14.01,2014-02-03 06:16:00,
2014-02-03 00:21:00,-2.6,-7.0,30.38,SE,146,2.8,4.0,81,0.00,,---,0.00,VWS V14.01,2014-02-03 06:21:00,
2014-02-03 00:26:00,-1.2,-5.4,30.38,SSE,150,2.7,4.0,82,0.00,,---,0.00,VWS V14.01,2014-02-03 06:26:00,
2014-02-03 00:31:00,-7.5,-13.3,30.37,ESE,115,2.2,4.0,75,0.00,,---,0.00,VWS V14.01,2014-02-03 06:31:00,
2014-02-03 00:36:00,-6.3,-12.8,30.37,ESE,112,4.5,4.5,72,0.00,,---,0.00,VWS V14.01,2014-02-03 06:36:00,
2014-02-03 00:41:00,-7.7,-14.0,30.37,ESE,110,3.2,4.5,73,0.00,,---,0.00,VWS V14.01,2014-02-03 06:41:00,
2014-02-03 00:46:00,-7.6,-14.5,30.37,ESE,110,3.9,4.5,71,0.00,,---,0.00,VWS V14.01,2014-02-03 06:46:00,
2014-02-03 00:51:00,-6.7,-13.4,30.37,ESE,110,3.0,4.5,72,0.00,,---,0.00,VWS V14.01,2014-02-03 06:51:00,
2014-02-03 00:56:00,-7.1,-13.9,30.37,ESE,110,2.8,4.5,71,0.00,,---,0.00,VWS V14.01,2014-02-03 06:56:00,
2014-02-03 01:01:00,-7.1,-13.8,30.37,ESE,110,3.7,4.5,72,0.00,,---,0.00,VWS V14.01,2014-02-03 07:01:00,
2014-02-03 01:06:00,-8.7,-15.9,30.37,ESE,120,3.7,4.2,70,0.00,,---,0.00,VWS V14.01,2014-02-03 07:06:00,
2014-02-03 01:11:00,-7.2,-13.7,30.37,ESE,116,4.2,4.2,72,0.00,,---,0.00,VWS V14.01,2014-02-03 07:11:00,
2014-02-03 01:16:00,-7.4,-13.8,30.37,ESE,106,2.3,2.3,73,0.00,,---,0.00,VWS V14.01,2014-02-03 07:16:00,
2014-02-03 01:21:00,-7.8,-14.2,30.37,East,91,0.0,2.0,73,0.00,,---,0.00,VWS V14.01,2014-02-03 07:21:00,
2014-02-03 01:26:00,-8.1,-14.6,30.37,ESE,116,2.7,3.4,72,0.00,,---,0.00,VWS V14.01,2014-02-03 07:26:00,
2014-02-03 01:31:00,-7.7,-14.6,30.37,SSE,152,1.0,2.0,71,0.00,,---,0.00,VWS V14.01,2014-02-03 07:31:00,
2014-02-03 01:36:00,-6.6,-12.6,30.37,SSE,152,1.8,1.8,74,0.00,,---,0.00,VWS V14.01,2014-02-03 07:36:00,
2014-02-03 01:41:00,-7.2,-13.5,30.37,ESE,117,4.0,4.4,73,0.00,,---,0.00,VWS V14.01,2014-02-03 07:41:00,
2014-02-03 01:46:00,-8.3,-15.1,30.37,ESE,103,1.6,3.2,71,0.00,,---,0.00,VWS V14.01,2014-02-03 07:46:00,
2014-02-03 01:51:00,-8.8,-16.1,30.37,ESE,115,3.7,3.7,69,0.00,,---,0.00,VWS V14.01,2014-02-03 07:51:00,
2014-02-03 01:56:00,-8.8,-15.7,30.37,ESE,121,3.7,4.4,71,0.00,,---,0.00,VWS V14.01,2014-02-03 07:56:00,
2014-02-03 02:01:00,-9.5,-16.9,30.37,ESE,123,3.7,3.9,69,0.00,,---,0.00,VWS V14.01,2014-02-03 08:01:00,
2014-02-03 02:06:00,-8.3,-15.3,30.37,ESE,116,3.4,3.9,70,0.00,,---,0.00,VWS V14.01,2014-02-03 08:06:00,
2014-02-03 02:11:00,-8.8,-16.4,30.38,ESE,116,4.0,4.0,68,0.00,,---,0.00,VWS V14.01,2014-02-03 08:11:00,
2014-02-03 02:16:00,-10.4,-18.0,30.38,ESE,110,4.9,4.9,68,0.00,,---,0.00,VWS V14.01,2014-02-03 08:16:00,
2014-02-03 02:21:00,-10.2,-17.5,30.38,ESE,113,5.7,5.7,69,0.00,,---,0.00,VWS V14.01,2014-02-03 08:21:00,
2014-02-03 02:26:00,-8.7,-15.9,30.38,ESE,108,4.9,5.7,70,0.00,,---,0.00,VWS V14.01,2014-02-03 08:26:00,
2014-02-03 02:31:00,-8.1,-14.6,30.38,ESE,111,4.7,5.7,72,0.00,,---,0.00,VWS V14.01,2014-02-03 08:31:00,
2014-02-03 02:36:00,-9.0,-15.6,30.37,ESE,111,3.4,5.7,72,0.00,,---,0.00,VWS V14.01,2014-02-03 08:36:00,
2014-02-03 02:41:00,-8.9,-15.9,30.37,ESE,118,3.9,5.7,71,0.00,,---,0.00,VWS V14.01,2014-02-03 08:41:00,
2014-02-03 02:46:00,-9.5,-17.0,30.38,ESE,111,4.5,5.7,69,0.00,,---,0.00,VWS V14.01,2014-02-03 08:46:00,
2014-02-03 02:51:00,-9.9,-17.1,30.37,SE,126,5.1,5.7,70,0.00,,---,0.00,VWS V14.01,2014-02-03 08:51:00,
2014-02-03 02:56:00,-10.0,-17.3,30.37,ESE,116,4.7,5.7,69,0.00,,---,0.00,VWS V14.01,2014-02-03 08:56:00,
2014-02-03 03:01:00,-9.6,-16.9,30.37,SE,124,4.2,5.7,69,0.00,,---,0.00,VWS V14.01,2014-02-03 09:01:00,
2014-02-03 03:06:00,-8.9,-16.2,30.37,ESE,111,4.4,4.4,69,0.00,,---,0.00,VWS V14.01,2014-02-03 09:06:00,
2014-02-03 03:11:00,-10.7,-18.0,30.37,SE,126,5.1,5.1,69,0.00,,---,0.00,VWS V14.01,2014-02-03 09:11:00,
2014-02-03 03:16:00,-9.8,-17.2,30.37,SE,134,1.3,2.2,69,0.00,,---,0.00,VWS V14.01,2014-02-03 09:16:00,
2014-02-03 03:21:00,-9.9,-16.9,30.36,SE,124,3.7,4.2,70,0.00,,---,0.00,VWS V14.01,2014-02-03 09:21:00,
2014-02-03 03:26:00,-10.6,-18.1,30.36,ESE,122,5.4,5.4,68,0.00,,---,0.00,VWS V14.01,2014-02-03 09:26:00,
2014-02-03 03:31:00,-9.7,-16.8,30.36,SE,135,3.7,5.1,70,0.00,,---,0.00,VWS V14.01,2014-02-03 09:31:00,
2014-02-03 03:36:00,-9.3,-16.5,30.36,SE,134,3.5,3.5,70,0.00,,---,0.00,VWS V14.01,2014-02-03 09:36:00,
2014-02-03 03:41:00,-9.6,-16.4,30.35,SE,130,3.0,5.6,71,0.00,,---,0.00,VWS V14.01,2014-02-03 09:41:00,
2014-02-03 03:46:00,-9.1,-16.2,30.36,SE,127,3.7,4.2,70,0.00,,---,0.00,VWS V14.01,2014-02-03 09:46:00,
2014-02-03 03:51:00,-9.1,-16.6,30.35,ESE,122,3.5,4.9,69,0.00,,---,0.00,VWS V14.01,2014-02-03 09:51:00,
2014-02-03 03:56:00,-9.3,-16.8,30.35,ESE,108,3.7,3.7,69,0.00,,---,0.00,VWS V14.01,2014-02-03 09:56:00,
2014-02-03 04:01:00,-9.3,-16.5,30.36,SE,127,4.0,4.5,70,0.00,,---,0.00,VWS V14.01,2014-02-03 10:01:00,
2014-02-03 04:06:00,-8.6,-16.1,30.35,SE,145,4.4,4.5,69,0.00,,---,0.00,VWS V14.01,2014-02-03 10:06:00,
2014-02-03 04:11:00,-10.0,-17.2,30.36,ESE,117,3.0,4.5,70,0.00,,---,0.00,VWS V14.01,2014-02-03 10:11:00,
2014-02-03 04:16:00,-10.5,-18.0,30.36,ESE,122,4.2,5.4,68,0.00,,---,0.00,VWS V14.01,2014-02-03 10:16:00,
2014-02-03 04:21:00,-9.9,-17.3,30.36,ESE,110,3.7,5.9,69,0.00,,---,0.00,VWS V14.01,2014-02-03 10:21:00,
2014-02-03 04:26:00,-10.1,-18.3,30.36,ESE,108,3.5,5.9,66,0.00,,---,0.00,VWS V14.01,2014-02-03 10:26:00,
2014-02-03 04:31:00,-10.9,-18.6,30.35,ESE,105,3.9,5.9,68,0.00,,---,0.00,VWS V14.01,2014-02-03 10:31:00,
2014-02-03 04:36:00,-11.8,-20.4,30.35,East,87,2.8,5.9,65,0.00,,---,0.00,VWS V14.01,2014-02-03 10:36:00,
2014-02-03 04:41:00,-12.4,-20.5,30.35,ESE,106,2.7,5.9,66,0.00,,---,0.00,VWS V14.01,2014-02-03 10:41:00,
2014-02-03 04:46:00,-12.5,-20.5,30.36,East,100,4.2,5.9,66,0.00,,---,0.00,VWS V14.01,2014-02-03 10:46:00,
2014-02-03 04:51:00,-12.2,-20.5,30.36,ESE,106,2.3,5.9,65,0.00,,---,0.00,VWS V14.01,2014-02-03 10:51:00,
2014-02-03 04:56:00,-11.0,-18.8,30.36,ESE,108,4.2,5.9,68,0.00,,---,0.00,VWS V14.01,2014-02-03 10:56:00,
2014-02-03 05:01:00,-9.4,-16.3,30.36,ESE,106,4.7,5.9,71,0.00,,---,0.00,VWS V14.01,2014-02-03 11:01:00,
2014-02-03 05:06:00,-9.3,-15.9,30.36,ESE,117,3.5,4.7,72,0.00,,---,0.00,VWS V14.01,2014-02-03 11:06:00,
2014-02-03 05:11:00,-10.5,-17.4,30.36,ESE,107,4.5,4.5,71,0.00,,---,0.00,VWS V14.01,2014-02-03 11:11:00,
2014-02-03 05:16:00,-10.8,-18.4,30.36,East,93,1.6,1.6,68,0.00,,---,0.00,VWS V14.01,2014-02-03 11:16:00,
2014-02-03 05:21:00,-10.2,-17.9,30.36,East,95,0.0,0.0,68,0.00,,---,0.00,VWS V14.01,2014-02-03 11:21:00,
2014-02-03 05:26:00,-10.7,-17.3,30.36,SE,126,1.8,2.5,72,0.00,,---,0.00,VWS V14.01,2014-02-03 11:26:00,
2014-02-03 05:31:00,-11.1,-18.4,30.36,ESE,108,0.0,1.0,69,0.00,,---,0.00,VWS V14.01,2014-02-03 11:31:00,
2014-02-03 05:36:00,-6.8,-13.7,30.36,SE,136,2.3,2.3,71,0.00,,---,0.00,VWS V14.01,2014-02-03 11:36:00,
2014-02-03 05:41:00,-8.8,-14.8,30.36,SSE,156,1.0,2.5,74,0.00,,---,0.00,VWS V14.01,2014-02-03 11:41:00,
2014-02-03 05:46:00,-7.1,-12.8,30.35,SSE,152,2.7,3.4,75,0.00,,---,0.00,VWS V14.01,2014-02-03 11:46:00,
2014-02-03 05:51:00,-6.0,-11.2,30.35,SSE,154,0.0,2.3,77,0.00,,---,0.00,VWS V14.01,2014-02-03 11:51:00,
2014-02-03 05:56:00,-5.2,-10.8,30.34,SE,146,2.0,2.0,76,0.00,,---,0.00,VWS V14.01,2014-02-03 11:56:00,
2014-02-03 06:01:00,-6.3,-11.4,30.35,SSE,150,3.9,3.9,78,0.00,,---,0.00,VWS V14.01,2014-02-03 12:01:00,
2014-02-03 06:06:00,-4.1,-10.4,30.34,SSE,162,4.4,4.4,73,0.00,,---,0.00,VWS V14.01,2014-02-03 12:06:00,
2014-02-03 06:11:00,-8.0,-15.5,30.34,SE,132,3.0,3.2,69,0.00,,---,0.00,VWS V14.01,2014-02-03 12:11:00,
2014-02-03 06:16:00,-9.7,-16.9,30.35,SE,132,3.7,3.7,69,0.00,,---,0.00,VWS V14.01,2014-02-03 12:16:00,
2014-02-03 06:21:00,-5.6,-11.8,30.35,South,182,2.5,2.5,74,0.00,,---,0.00,VWS V14.01,2014-02-03 12:21:00,
2014-02-03 06:26:00,-4.1,-9.8,30.35,SE,141,2.0,2.3,76,0.00,,---,0.00,VWS V14.01,2014-02-03 12:26:00,
2014-02-03 06:31:00,-3.6,-9.1,30.34,SSE,159,3.9,3.9,76,0.00,,---,0.00,VWS V14.01,2014-02-03 12:31:00,
2014-02-03 06:36:00,-4.4,-10.4,30.35,SSE,153,4.0,4.0,75,0.00,,---,0.00,VWS V14.01,2014-02-03 12:36:00,
2014-02-03 06:41:00,-4.2,-10.9,30.35,SSE,156,5.1,5.4,72,0.00,,---,0.00,VWS V14.01,2014-02-03 12:41:00,
2014-02-03 06:47:00,-4.1,-10.7,30.34,SSE,149,4.0,4.0,72,0.00,,---,0.00,VWS V14.01,2014-02-03 12:47:00,
2014-02-03 06:52:00,-3.9,-10.4,30.34,SE,140,3.2,3.5,73,0.00,,---,0.00,VWS V14.01,2014-02-03 12:52:00,
2014-02-03 06:57:00,-4.5,-10.7,30.34,SSE,151,2.5,3.5,74,0.00,,---,0.00,VWS V14.01,2014-02-03 12:57:00,
2014-02-03 07:02:00,-5.1,-11.7,30.34,SSE,163,2.0,3.2,72,0.00,,---,0.00,VWS V14.01,2014-02-03 13:02:00,
2014-02-03 07:07:00,-3.2,-9.8,30.33,SSE,148,1.5,1.5,73,0.00,,---,0.00,VWS V14.01,2014-02-03 13:07:00,
2014-02-03 07:12:00,-3.0,-8.8,30.33,SE,133,0.0,1.5,75,0.00,,---,0.00,VWS V14.01,2014-02-03 13:12:00,
2014-02-03 07:17:00,-1.6,-6.7,30.32,SSE,167,2.2,3.2,78,0.00,,---,0.00,VWS V14.01,2014-02-03 13:17:00,
2014-02-03 07:22:00,-0.8,-6.0,30.32,SSE,164,3.4,3.4,78,0.00,,---,0.00,VWS V14.01,2014-02-03 13:22:00,
2014-02-03 07:27:00,-1.1,-6.6,30.31,SSE,164,2.2,2.7,77,0.00,,---,0.00,VWS V14.01,2014-02-03 13:27:00,
2014-02-03 07:32:00,-0.8,-6.7,30.31,SSE,157,3.4,3.4,75,0.00,,---,0.00,VWS V14.01,2014-02-03 13:32:00,
2014-02-03 07:37:00,-1.1,-7.4,30.31,SSE,158,0.0,1.6,74,0.00,,---,0.00,VWS V14.01,2014-02-03 13:37:00,
2014-02-03 07:42:00,-1.8,-9.2,30.31,ENE,78,1.5,1.5,70,0.00,,---,0.00,VWS V14.01,2014-02-03 13:42:00,
2014-02-03 07:47:00,-1.7,-9.1,30.32,SE,145,2.2,2.2,70,0.00,,---,0.00,VWS V14.01,2014-02-03 13:47:00,
2014-02-03 07:52:00,0.4,-6.5,30.32,South,180,0.0,2.2,72,0.00,,---,0.00,VWS V14.01,2014-02-03 13:52:00,
2014-02-03 07:57:00,0.8,-5.8,30.33,SSE,157,1.8,1.8,73,0.00,,---,0.00,VWS V14.01,2014-02-03 13:57:00,
2014-02-03 08:02:00,1.1,-6.4,30.33,SSE,152,3.5,4.5,70,0.00,,---,0.00,VWS V14.01,2014-02-03 14:02:00,
2014-02-03 08:07:00,1.7,-6.5,30.33,South,179,5.6,5.6,68,0.00,,---,0.00,VWS V14.01,2014-02-03 14:07:00,
2014-02-03 08:12:00,1.4,-7.2,30.32,South,174,1.6,2.5,66,0.00,,---,0.00,VWS V14.01,2014-02-03 14:12:00,
2014-02-03 08:17:00,1.9,-7.3,30.32,SSE,164,0.0,2.7,65,0.00,,---,0.00,VWS V14.01,2014-02-03 14:17:00,
2014-02-03 08:22:00,0.6,-9.3,30.32,SSE,153,2.5,2.5,62,0.00,,---,0.00,VWS V14.01,2014-02-03 14:22:00,
2014-02-03 08:27:00,0.3,-10.5,30.31,SSE,155,1.0,2.8,59,0.00,,---,0.00,VWS V14.01,2014-02-03 14:27:00,
2014-02-03 08:32:00,-0.9,-12.0,30.32,SE,125,2.5,2.5,58,0.00,,---,0.00,VWS V14.01,2014-02-03 14:32:00,
2014-02-03 08:37:00,-0.5,-11.5,30.32,SE,145,2.0,2.5,59,0.00,,---,0.00,VWS V14.01,2014-02-03 14:37:00,
2014-02-03 08:42:00,0.1,-11.6,30.32,SSE,149,3.9,3.9,57,0.00,,---,0.00,VWS V14.01,2014-02-03 14:42:00,
2014-02-03 08:47:00,1.4,-9.3,30.32,SSE,163,4.2,4.2,60,0.00,,---,0.00,VWS V14.01,2014-02-03 14:47:00,
2014-02-03 08:52:00,0.9,-10.0,30.32,SSE,148,2.0,2.5,59,0.00,,---,0.00,VWS V14.01,2014-02-03 14:52:00,
2014-02-03 08:57:00,1.4,-10.0,30.32,SE,143,2.2,2.2,58,0.00,,---,0.00,VWS V14.01,2014-02-03 14:57:00,
2014-02-03 09:02:00,2.2,-10.6,30.33,ESE,107,3.4,3.7,54,0.00,,---,0.00,VWS V14.01,2014-02-03 15:02:00,
2014-02-03 09:07:00,1.8,-10.2,30.33,SE,137,2.7,4.2,56,0.00,,---,0.00,VWS V14.01,2014-02-03 15:07:00,
2014-02-03 09:12:00,2.9,-10.0,30.33,ESE,115,2.3,2.3,54,0.00,,---,0.00,VWS V14.01,2014-02-03 15:12:00,
2014-02-03 09:17:00,3.0,-11.1,30.33,SE,134,2.8,2.8,51,0.00,,---,0.00,VWS V14.01,2014-02-03 15:17:00,
2014-02-03 09:22:00,4.7,-10.3,30.32,South,170,6.4,6.4,49,0.00,,---,0.00,VWS V14.01,2014-02-03 15:22:00,
2014-02-03 09:27:00,5.0,-10.5,30.33,SE,141,3.7,5.2,48,0.00,,---,0.00,VWS V14.01,2014-02-03 15:27:00,
2014-02-03 09:32:00,6.8,-9.8,30.32,SSE,158,2.7,6.6,46,0.00,,---,0.00,VWS V14.01,2014-02-03 15:32:00,
2014-02-03 09:37:00,6.7,-11.2,30.32,South,188,5.6,5.6,43,0.00,,---,0.00,VWS V14.01,2014-02-03 15:37:00,
2014-02-03 09:42:00,8.7,-12.3,30.32,SSE,153,2.8,6.3,37,0.00,,---,0.00,VWS V14.01,2014-02-03 15:42:00,
2014-02-03 09:47:00,8.5,-16.5,30.32,South,188,4.9,4.9,30,0.00,,---,0.00,VWS V14.01,2014-02-03 15:47:00,
2014-02-03 09:52:00,9.2,-15.9,30.32,South,191,5.7,5.7,30,0.00,,---,0.00,VWS V14.01,2014-02-03 15:52:00,
2014-02-03 09:57:00,9.6,-17.1,30.31,South,171,4.9,7.3,28,0.00,,---,0.00,VWS V14.01,2014-02-03 15:57:00,
2014-02-03 10:02:00,10.0,-17.2,30.31,SSW,204,7.5,7.6,27,0.00,,---,0.00,VWS V14.01,2014-02-03 16:02:00,
2014-02-03 10:07:00,9.8,-17.3,30.31,SSW,201,9.3,12.6,27,0.00,,---,0.00,VWS V14.01,2014-02-03 16:07:00,
2014-02-03 10:12:00,11.7,-17.4,30.31,SSE,153,3.7,12.6,25,0.00,,---,0.00,VWS V14.01,2014-02-03 16:12:00,
2014-02-03 10:17:00,9.5,-21.3,30.31,South,186,11.6,12.6,22,0.00,,---,0.00,VWS V14.01,2014-02-03 16:17:00,
2014-02-03 10:22:00,11.1,-18.0,30.32,SW,231,7.6,12.6,25,0.00,,---,0.00,VWS V14.01,2014-02-03 16:22:00,
2014-02-03 10:27:00,10.7,-23.1,30.32,South,176,7.8,12.6,19,0.00,,---,0.00,VWS V14.01,2014-02-03 16:27:00,
2014-02-03 10:32:00,10.5,-24.1,30.31,South,171,10.2,12.6,18,0.00,,---,0.00,VWS V14.01,2014-02-03 16:32:00,
2014-02-03 10:37:00,11.2,-20.6,30.31,South,169,6.4,12.6,22,0.00,,---,0.00,VWS V14.01,2014-02-03 16:37:00,
2014-02-03 10:42:00,11.0,-18.8,30.31,South,173,9.7,12.6,24,0.00,,---,0.00,VWS V14.01,2014-02-03 16:42:00,
2014-02-03 10:47:00,10.9,-18.5,30.31,SSE,162,9.0,12.6,24,0.00,,---,0.00,VWS V14.01,2014-02-03 16:47:00,
2014-02-03 10:52:00,10.4,-27.2,30.31,SSW,208,9.9,12.6,16,0.00,,---,0.00,VWS V14.01,2014-02-03 16:52:00,
2014-02-03 10:57:00,12.0,-16.9,30.31,SSW,206,7.1,12.6,25,0.00,,---,0.00,VWS V14.01,2014-02-03 16:57:00,
2014-02-03 11:02:00,13.2,-24.0,30.32,SSW,207,3.4,12.6,16,0.00,,---,0.00,VWS V14.01,2014-02-03 17:02:00,
2014-02-03 11:07:00,13.8,-19.4,30.31,SW,220,7.6,7.6,21,0.00,,---,0.00,VWS V14.01,2014-02-03 17:07:00,
2014-02-03 11:12:00,12.3,-19.9,30.31,SSE,153,4.5,5.9,21,0.00,,---,0.00,VWS V14.01,2014-02-03 17:12:00,
2014-02-03 11:17:00,12.6,-20.0,30.30,SSE,155,9.2,9.5,21,0.00,,---,0.00,VWS V14.01,2014-02-03 17:17:00,
2014-02-03 11:22:00,11.6,-22.6,30.31,South,176,9.0,11.4,19,0.00,,---,0.00,VWS V14.01,2014-02-03 17:22:00,
2014-02-03 11:27:00,12.2,-18.5,30.30,SSE,151,9.3,9.3,23,0.00,,---,0.00,VWS V14.01,2014-02-03 17:27:00,
2014-02-03 11:32:00,13.7,-23.8,30.30,South,173,4.2,4.2,16,0.00,,---,0.00,VWS V14.01,2014-02-03 17:32:00,
2014-02-03 11:37:00,14.9,-18.5,30.29,SSE,164,5.4,5.4,20,0.00,,---,0.00,VWS V14.01,2014-02-03 17:37:00,
2014-02-03 11:42:00,16.4,-22.6,30.29,SW,233,6.6,6.6,15,0.00,,---,0.00,VWS V14.01,2014-02-03 17:42:00,
2014-02-03 11:47:00,13.3,-18.5,30.29,South,172,4.5,9.2,22,0.00,,---,0.00,VWS V14.01,2014-02-03 17:47:00,
2014-02-03 11:52:00,15.1,-22.3,30.29,South,179,2.2,8.3,17,0.00,,---,0.00,VWS V14.01,2014-02-03 17:52:00,
2014-02-03 11:57:00,14.5,-19.7,30.28,SSE,162,7.5,7.5,20,0.00,,---,0.00,VWS V14.01,2014-02-03 17:57:00,
2014-02-03 12:02:00,12.9,-17.6,30.28,SSE,156,9.3,10.2,23,0.00,,---,0.00,VWS V14.01,2014-02-03 18:02:00,
2014-02-03 12:07:00,14.9,-18.5,30.28,SW,227,5.6,6.6,20,0.00,,---,0.00,VWS V14.01,2014-02-03 18:07:00,
2014-02-03 12:12:00,13.6,-23.0,30.28,SSW,204,6.9,8.5,17,0.00,,---,0.00,VWS V14.01,2014-02-03 18:12:00,
2014-02-03 12:17:00,15.3,-15.7,30.28,SSW,196,6.1,6.1,23,0.00,,---,0.00,VWS V14.01,2014-02-03 18:17:00,
2014-02-03 12:22:00,13.4,-21.0,30.28,SSE,155,6.1,7.3,19,0.00,,---,0.00,VWS V14.01,2014-02-03 18:22:00,
2014-02-03 12:27:00,15.5,-23.6,30.27,South,183,6.1,6.6,15,0.00,,---,0.00,VWS V14.01,2014-02-03 18:27:00,
2014-02-03 12:32:00,13.3,-23.3,30.27,SSE,163,12.1,12.1,17,0.00,,---,0.00,VWS V14.01,2014-02-03 18:32:00,
2014-02-03 12:37:00,14.8,-23.3,30.26,SSW,200,6.9,10.2,16,0.00,,---,0.00,VWS V14.01,2014-02-03 18:37:00,
2014-02-03 12:42:00,14.6,-16.1,30.26,SW,222,9.5,9.5,23,0.00,,---,0.00,VWS V14.01,2014-02-03 18:42:00,
2014-02-03 12:47:00,14.1,-20.9,30.26,SSW,196,6.6,7.1,19,0.00,,---,0.00,VWS V14.01,2014-02-03 18:47:00,
2014-02-03 12:52:00,15.3,-24.3,30.26,SW,218,8.1,9.7,15,0.00,,---,0.00,VWS V14.01,2014-02-03 18:52:00,
2014-02-03 12:57:00,16.4,-17.9,30.26,SSW,201,4.9,5.7,20,0.00,,---,0.00,VWS V14.01,2014-02-03 18:57:00,
2014-02-03 13:02:00,16.1,-23.6,30.26,WSW,248,8.3,8.3,15,0.00,,---,0.00,VWS V14.01,2014-02-03 19:02:00,
2014-02-03 13:07:00,15.6,-22.5,30.25,SSW,201,6.3,7.6,16,0.00,,---,0.00,VWS V14.01,2014-02-03 19:07:00,
2014-02-03 13:12:00,14.8,-17.6,30.25,SSW,203,8.8,9.9,21,0.00,,---,0.00,VWS V14.01,2014-02-03 19:12:00,
2014-02-03 13:17:00,16.9,-14.6,30.25,SW,223,6.8,8.5,23,0.00,,---,0.00,VWS V14.01,2014-02-03 19:17:00,
2014-02-03 13:22:00,16.4,-17.5,30.25,South,174,5.6,9.0,20,0.00,,---,0.00,VWS V14.01,2014-02-03 19:22:00,
2014-02-03 13:27:00,16.3,-16.7,30.26,SSE,164,5.7,7.3,21,0.00,,---,0.00,VWS V14.01,2014-02-03 19:27:00,
2014-02-03 13:32:00,14.1,-18.2,30.26,SSE,159,9.0,9.0,21,0.00,,---,0.00,VWS V14.01,2014-02-03 19:32:00,
2014-02-03 13:37:00,15.2,-18.9,30.27,SSW,198,8.0,8.0,20,0.00,,---,0.00,VWS V14.01,2014-02-03 19:37:00,
2014-02-03 13:43:00,15.6,-21.0,30.26,SW,219,8.5,8.5,17,0.00,,---,0.00,VWS V14.01,2014-02-03 19:43:00,
2014-02-03 13:48:00,15.6,-14.2,30.26,West,262,8.5,8.5,25,0.00,,---,0.00,VWS V14.01,2014-02-03 19:48:00,
2014-02-03 13:53:00,16.7,-20.6,30.27,WSW,237,4.7,5.6,17,0.00,,---,0.00,VWS V14.01,2014-02-03 19:53:00,
2014-02-03 13:58:00,15.7,-20.7,30.27,SSW,199,5.6,5.6,18,0.00,,---,0.00,VWS V14.01,2014-02-03 19:58:00,
2014-02-03 14:03:00,16.8,-17.8,30.27,SW,231,5.4,5.4,19,0.00,,---,0.00,VWS V14.01,2014-02-03 20:03:00,
2014-02-03 14:08:00,16.9,-19.5,30.27,WSW,245,6.3,6.8,18,0.00,,---,0.00,VWS V14.01,2014-02-03 20:08:00,
2014-02-03 14:13:00,14.7,-23.5,30.27,SSE,158,9.2,9.2,16,0.00,,---,0.00,VWS V14.01,2014-02-03 20:13:00,
2014-02-03 14:18:00,16.0,-14.5,30.27,South,180,3.5,3.7,24,0.00,,---,0.00,VWS V14.01,2014-02-03 20:18:00,
2014-02-03 14:23:00,16.3,-21.0,30.27,South,177,5.6,6.3,17,0.00,,---,0.00,VWS V14.01,2014-02-03 20:23:00,
2014-02-03 14:28:00,15.9,-19.3,30.27,WSW,246,9.0,9.0,19,0.00,,---,0.00,VWS V14.01,2014-02-03 20:28:00,
2014-02-03 14:33:00,16.1,-14.6,30.27,SSW,208,6.6,7.1,24,0.00,,---,0.00,VWS V14.01,2014-02-03 20:33:00,
2014-02-03 14:38:00,16.2,-17.9,30.27,SW,223,7.5,7.5,20,0.00,,---,0.00,VWS V14.01,2014-02-03 20:38:00,
2014-02-03 14:43:00,15.3,-14.1,30.27,SW,219,8.8,8.8,25,0.00,,---,0.00,VWS V14.01,2014-02-03 20:43:00,
2014-02-03 14:48:00,14.6,-14.6,30.27,SSW,207,8.0,8.0,25,0.00,,---,0.00,VWS V14.01,2014-02-03 20:48:00,
2014-02-03 14:53:00,15.1,-14.4,30.28,South,182,3.9,7.1,25,0.00,,---,0.00,VWS V14.01,2014-02-03 20:53:00,
2014-02-03 14:58:00,15.0,-15.7,30.28,SSW,197,3.5,4.5,23,0.00,,---,0.00,VWS V14.01,2014-02-03 20:58:00,
2014-02-03 15:03:00,14.1,-13.0,30.28,South,172,9.5,9.5,28,0.00,,---,0.00,VWS V14.01,2014-02-03 21:03:00,
2014-02-03 15:08:00,14.9,-13.6,30.28,SSW,210,5.4,7.6,26,0.00,,---,0.00,VWS V14.01,2014-02-03 21:08:00,
2014-02-03 15:13:00,14.0,-13.6,30.28,South,190,5.1,7.1,27,0.00,,---,0.00,VWS V14.01,2014-02-03 21:13:00,
2014-02-03 15:18:00,14.2,-10.3,30.28,SSW,210,6.6,9.3,32,0.00,,---,0.00,VWS V14.01,2014-02-03 21:18:00,
2014-02-03 15:23:00,15.3,-9.0,30.28,SSW,195,4.5,5.2,32,0.00,,---,0.00,VWS V14.01,2014-02-03 21:23:00,
2014-02-03 15:28:00,14.7,-11.6,30.28,South,180,5.6,5.6,29,0.00,,---,0.00,VWS V14.01,2014-02-03 21:28:00,
2014-02-03 15:33:00,14.9,-11.2,30.28,SSE,157,6.8,10.7,30,0.00,,---,0.00,VWS V14.01,2014-02-03 21:33:00,
2014-02-03 15:38:00,15.3,-9.1,30.29,SSW,200,3.9,3.9,32,0.00,,---,0.00,VWS V14.01,2014-02-03 21:38:00,
2014-02-03 15:43:00,14.4,-11.6,30.29,South,180,8.8,8.8,30,0.00,,---,0.00,VWS V14.01,2014-02-03 21:43:00,
2014-02-03 15:48:00,15.2,-10.8,30.29,SSW,206,4.7,6.1,30,0.00,,---,0.00,VWS V14.01,2014-02-03 21:48:00,
2014-02-03 15:53:00,15.5,-11.3,30.29,SSW,203,3.9,6.8,29,0.00,,---,0.00,VWS V14.01,2014-02-03 21:53:00,
2014-02-03 15:58:00,14.9,-12.6,30.30,South,188,5.4,5.4,28,0.00,,---,0.00,VWS V14.01,2014-02-03 21:58:00,
2014-02-03 16:03:00,14.4,-12.2,30.29,South,182,7.8,7.8,29,0.00,,---,0.00,VWS V14.01,2014-02-03 22:03:00,
2014-02-03 16:08:00,14.9,-7.9,30.29,South,175,3.2,3.2,35,0.00,,---,0.00,VWS V14.01,2014-02-03 22:08:00,
2014-02-03 16:13:00,14.4,-8.3,30.30,South,185,7.1,7.5,35,0.00,,---,0.00,VWS V14.01,2014-02-03 22:13:00,
2014-02-03 16:18:00,14.5,-8.9,30.30,SW,231,6.8,6.8,34,0.00,,---,0.00,VWS V14.01,2014-02-03 22:18:00,
2014-02-03 16:23:00,14.2,-6.8,30.31,SSE,153,5.6,6.4,38,0.00,,---,0.00,VWS V14.01,2014-02-03 22:23:00,
2014-02-03 16:28:00,14.2,-6.2,30.30,SW,219,5.1,6.9,39,0.00,,---,0.00,VWS V14.01,2014-02-03 22:28:00,
2014-02-03 16:33:00,13.9,-8.2,30.31,SSW,205,6.4,7.1,36,0.00,,---,0.00,VWS V14.01,2014-02-03 22:33:00,
2014-02-03 16:38:00,14.0,-7.5,30.32,WSW,243,5.7,5.7,37,0.00,,---,0.00,VWS V14.01,2014-02-03 22:38:00,
2014-02-03 16:43:00,13.8,-6.1,30.32,SW,225,6.8,6.8,40,0.00,,---,0.00,VWS V14.01,2014-02-03 22:43:00,
2014-02-03 16:48:00,13.6,-5.7,30.32,South,181,4.0,4.0,41,0.00,,---,0.00,VWS V14.01,2014-02-03 22:48:00,
2014-02-03 16:53:00,13.6,-5.6,30.32,SSW,200,4.7,4.7,41,0.00,,---,0.00,VWS V14.01,2014-02-03 22:53:00,
2014-02-03 16:58:00,13.6,-4.8,30.32,SW,225,2.0,2.0,43,0.00,,---,0.00,VWS V14.01,2014-02-03 22:58:00,
2014-02-03 17:03:00,13.7,-4.7,30.32,WSW,237,2.0,5.7,43,0.00,,---,0.00,VWS V14.01,2014-02-03 23:03:00,
2014-02-03 17:08:00,13.4,-4.9,30.32,SSW,192,4.0,4.0,43,0.00,,---,0.00,VWS V14.01,2014-02-03 23:08:00,
2014-02-03 17:13:00,13.3,-4.7,30.32,SSE,167,0.0,1.6,44,0.00,,---,0.00,VWS V14.01,2014-02-03 23:13:00,
2014-02-03 17:18:00,13.2,-4.6,30.32,SSW,199,1.1,2.3,44,0.00,,---,0.00,VWS V14.01,2014-02-03 23:18:00,
2014-02-03 17:23:00,13.0,-4.7,30.33,SW,223,0.0,4.0,44,0.00,,---,0.00,VWS V14.01,2014-02-03 23:23:00,
2014-02-03 17:28:00,12.9,-4.1,30.32,SSW,196,2.7,2.7,46,0.00,,---,0.00,VWS V14.01,2014-02-03 23:28:00,
2014-02-03 17:33:00,12.7,-3.5,30.32,SSW,205,1.3,2.8,47,0.00,,---,0.00,VWS V14.01,2014-02-03 23:33:00,
2014-02-03 17:38:00,12.6,-3.6,30.32,SSW,205,3.5,3.7,47,0.00,,---,0.00,VWS V14.01,2014-02-03 23:38:00,
2014-02-03 17:43:00,12.1,-4.2,30.32,South,190,0.0,0.0,47,0.00,,---,0.00,VWS V14.01,2014-02-03 23:43:00,
2014-02-03 17:48:00,12.2,-3.2,30.32,SSW,203,3.7,3.7,49,0.00,,---,0.00,VWS V14.01,2014-02-03 23:48:00,
2014-02-03 17:53:00,11.9,-3.0,30.33,South,179,2.5,2.5,50,0.00,,---,0.00,VWS V14.01,2014-02-03 23:53:00,
2014-02-03 17:58:00,11.9,-2.3,30.33,South,187,1.6,2.7,52,0.00,,---,0.00,VWS V14.01,2014-02-03 23:58:00,
2014-02-03 18:03:00,11.9,-1.7,30.34,SSW,206,3.4,3.4,54,0.00,,---,0.00,VWS V14.01,2014-02-04 00:03:00,
2014-02-03 18:08:00,11.1,-2.7,30.34,South,190,0.0,0.0,53,0.00,,---,0.00,VWS V14.01,2014-02-04 00:08:00,
2014-02-03 18:13:00,11.4,-1.6,30.34,SSW,209,1.1,1.1,55,0.00,,---,0.00,VWS V14.01,2014-02-04 00:13:00,
2014-02-03 18:18:00,10.9,-2.1,30.33,SW,225,0.0,0.0,55,0.00,,---,0.00,VWS V14.01,2014-02-04 00:18:00,
2014-02-03 18:23:00,11.1,-1.2,30.34,SSW,201,0.0,1.0,57,0.00,,---,0.00,VWS V14.01,2014-02-04 00:23:00,
2014-02-03 18:28:00,10.9,-1.1,30.34,South,175,1.3,1.3,58,0.00,,---,0.00,VWS V14.01,2014-02-04 00:28:00,
2014-02-03 18:33:00,10.9,-0.6,30.34,South,175,0.0,2.2,59,0.00,,---,0.00,VWS V14.01,2014-02-04 00:33:00,
2014-02-03 18:38:00,10.7,-0.9,30.34,SW,234,1.0,1.3,59,0.00,,---,0.00,VWS V14.01,2014-02-04 00:38:00,
2014-02-03 18:43:00,10.6,-0.6,30.34,SSW,210,0.0,0.0,60,0.00,,---,0.00,VWS V14.01,2014-02-04 00:43:00,
2014-02-03 18:48:00,10.4,-1.2,30.34,SSW,210,0.0,0.0,58,0.00,,---,0.00,VWS V14.01,2014-02-04 00:48:00,
2014-02-03 18:53:00,9.8,-1.6,30.34,SSW,210,0.0,0.0,59,0.00,,---,0.00,VWS V14.01,2014-02-04 00:53:00,
2014-02-03 18:58:00,10.4,-0.5,30.34,SSW,210,0.0,0.0,61,0.00,,---,0.00,VWS V14.01,2014-02-04 00:58:00,
2014-02-03 19:03:00,10.9,0.5,30.34,SSW,210,0.0,0.0,62,0.00,,---,0.00,VWS V14.01,2014-02-04 01:03:00,
2014-02-03 19:08:00,11.3,1.0,30.33,SSW,210,0.0,0.0,63,0.00,,---,0.00,VWS V14.01,2014-02-04 01:08:00,
2014-02-03 19:13:00,10.7,0.3,30.33,SSW,210,0.0,0.0,62,0.00,,---,0.00,VWS V14.01,2014-02-04 01:13:00,
2014-02-03 19:18:00,10.3,-0.4,30.34,SSW,210,0.0,0.0,61,0.00,,---,0.00,VWS V14.01,2014-02-04 01:18:00,
2014-02-03 19:23:00,10.0,-0.9,30.33,SSW,210,0.0,0.0,61,0.00,,---,0.00,VWS V14.01,2014-02-04 01:23:00,
2014-02-03 19:28:00,10.0,-0.9,30.34,NE,37,0.0,0.0,61,0.00,,---,0.00,VWS V14.01,2014-02-04 01:28:00,
2014-02-03 19:33:00,9.9,-1.1,30.33,NE,37,0.0,0.0,60,0.00,,---,0.00,VWS V14.01,2014-02-04 01:33:00,
2014-02-03 19:38:00,10.1,-0.8,30.34,NE,37,0.0,0.0,61,0.00,,---,0.00,VWS V14.01,2014-02-04 01:38:00,
2014-02-03 19:43:00,10.6,-0.1,30.34,NE,37,0.0,0.0,61,0.00,,---,0.00,VWS V14.01,2014-02-04 01:43:00,
2014-02-03 19:48:00,9.9,-0.7,30.34,NE,37,0.0,0.0,61,0.00,,---,0.00,VWS V14.01,2014-02-04 01:48:00,
2014-02-03 19:53:00,10.4,0.4,30.34,NE,37,0.0,0.0,63,0.00,,---,0.00,VWS V14.01,2014-02-04 01:53:00,
2014-02-03 19:58:00,10.4,0.5,30.34,NE,37,0.0,0.0,64,0.00,,---,0.00,VWS V14.01,2014-02-04 01:58:00,
2014-02-03 20:03:00,9.7,-0.2,30.35,NE,37,0.0,0.0,63,0.00,,---,0.00,VWS V14.01,2014-02-04 02:03:00,
2014-02-03 20:08:00,10.2,0.3,30.35,NE,37,0.0,0.0,64,0.00,,---,0.00,VWS V14.01,2014-02-04 02:08:00,
2014-02-03 20:13:00,10.0,0.4,30.34,NE,37,0.0,0.0,65,0.00,,---,0.00,VWS V14.01,2014-02-04 02:13:00,
2014-02-03 20:18:00,9.0,-1.1,30.34,NNW,348,2.2,2.2,63,0.00,,---,0.00,VWS V14.01,2014-02-04 02:18:00,
2014-02-03 20:23:00,7.9,-2.4,30.34,NNW,348,0.0,0.0,62,0.00,,---,0.00,VWS V14.01,2014-02-04 02:23:00,
2014-02-03 20:28:00,8.3,-1.9,30.34,NNW,348,0.0,0.0,62,0.00,,---,0.00,VWS V14.01,2014-02-04 02:28:00,
2014-02-03 20:34:00,8.6,-1.3,30.35,NNW,348,0.0,0.0,63,0.00,,---,0.00,VWS V14.01,2014-02-04 02:34:00,
2014-02-03 20:39:00,8.3,-0.9,30.36,NNW,348,0.0,0.0,65,0.00,,---,0.00,VWS V14.01,2014-02-04 02:39:00,
2014-02-03 20:44:00,7.7,-1.4,30.35,NNW,348,0.0,0.0,65,0.00,,---,0.00,VWS V14.01,2014-02-04 02:44:00,
2014-02-03 20:49:00,7.8,-0.5,30.36,SW,224,3.2,3.4,68,0.00,,---,0.00,VWS V14.01,2014-02-04 02:49:00,
2014-02-03 20:54:00,8.3,0.3,30.37,SW,224,2.5,2.8,69,0.00,,---,0.00,VWS V14.01,2014-02-04 02:54:00,
2014-02-03 20:59:00,9.3,1.8,30.36,WSW,244,0.0,2.7,71,0.00,,---,0.00,VWS V14.01,2014-02-04 02:59:00,
2014-02-03 21:04:00,7.6,-1.0,30.36,WNW,297,2.0,2.2,67,0.00,,---,0.00,VWS V14.01,2014-02-04 03:04:00,
2014-02-03 21:09:00,7.6,-1.1,30.36,WNW,297,2.2,2.5,67,0.00,,---,0.00,VWS V14.01,2014-02-04 03:09:00,
2014-02-03 21:14:00,8.0,-0.2,30.36,WNW,296,0.0,0.0,69,0.00,,---,0.00,VWS V14.01,2014-02-04 03:14:00,
2014-02-03 21:19:00,6.9,-1.5,30.36,WNW,296,0.0,0.0,68,0.00,,---,0.00,VWS V14.01,2014-02-04 03:19:00,
2014-02-03 21:24:00,6.5,-1.9,30.36,WNW,297,0.0,0.0,68,0.00,,---,0.00,VWS V14.01,2014-02-04 03:24:00,
2014-02-03 21:29:00,6.7,-1.8,30.37,WNW,297,0.0,0.0,67,0.00,,---,0.00,VWS V14.01,2014-02-04 03:29:00,
2014-02-03 21:34:00,6.5,-1.9,30.37,WNW,297,0.0,0.0,68,0.00,,---,0.00,VWS V14.01,2014-02-04 03:34:00,
2014-02-03 21:39:00,6.3,-1.9,30.37,WNW,297,0.0,0.0,68,0.00,,---,0.00,VWS V14.01,2014-02-04 03:39:00,
2014-02-03 21:44:00,6.1,-2.0,30.38,WNW,297,0.0,0.0,69,0.00,,---,0.00,VWS V14.01,2014-02-04 03:44:00,
2014-02-03 21:49:00,6.5,-1.3,30.37,WNW,297,0.0,0.0,70,0.00,,---,0.00,VWS V14.01,2014-02-04 03:49:00,
2014-02-03 21:54:00,5.7,-2.5,30.37,WNW,297,0.0,0.0,68,0.00,,---,0.00,VWS V14.01,2014-02-04 03:54:00,
2014-02-03 21:59:00,6.1,-1.8,30.37,WNW,297,0.0,0.0,69,0.00,,---,0.00,VWS V14.01,2014-02-04 03:59:00,
2014-02-03 22:04:00,6.4,-1.1,30.37,NNW,329,2.8,3.0,71,0.00,,---,0.00,VWS V14.01,2014-02-04 04:04:00,
2014-02-03 22:09:00,5.8,-1.8,30.37,NNW,329,1.1,1.1,70,0.00,,---,0.00,VWS V14.01,2014-02-04 04:09:00,
2014-02-03 22:14:00,6.1,-1.6,30.37,NNW,329,0.0,0.0,70,0.00,,---,0.00,VWS V14.01,2014-02-04 04:14:00,
2014-02-03 22:19:00,5.9,-2.0,30.37,NNW,329,0.0,0.0,69,0.00,,---,0.00,VWS V14.01,2014-02-04 04:19:00,
2014-02-03 22:24:00,5.6,-2.4,30.37,NNW,337,2.2,2.5,69,0.00,,---,0.00,VWS V14.01,2014-02-04 04:24:00,
2014-02-03 22:29:00,5.2,-3.0,30.37,NNW,347,3.5,3.5,68,0.00,,---,0.00,VWS V14.01,2014-02-04 04:29:00,
2014-02-03 22:34:00,4.1,-4.4,30.37,NNW,330,3.9,5.4,67,0.00,,---,0.00,VWS V14.01,2014-02-04 04:34:00,
2014-02-03 22:39:00,4.0,-4.6,30.38,North,350,3.4,3.4,66,0.00,,---,0.00,VWS V14.01,2014-02-04 04:39:00,
2014-02-03 22:44:00,4.0,-4.5,30.38,NNW,337,0.0,0.0,67,0.00,,---,0.00,VWS V14.01,2014-02-04 04:44:00,
2014-02-03 22:49:00,4.8,-3.3,30.38,NNE,15,0.0,0.0,69,0.00,,---,0.00,VWS V14.01,2014-02-04 04:49:00,
2014-02-03 22:54:00,5.3,-2.5,30.38,NNE,15,0.0,0.0,69,0.00,,---,0.00,VWS V14.01,2014-02-04 04:54:00,
2014-02-03 22:59:00,5.6,-1.9,30.38,West,269,0.0,0.0,70,0.00,,---,0.00,VWS V14.01,2014-02-04 04:59:00,
2014-02-03 23:01:00,5.8,-1.6,30.38,West,269,0.0,0.0,71,0.00,,---,0.00,VWS V14.01,2014-02-04 05:01:00,
2014-02-03 23:03:00,5.9,-1.5,30.39,West,269,0.0,0.0,71,0.00,,---,0.00,VWS V14.01,2014-02-04 05:03:00,
2014-02-03 23:04:00,5.8,-1.7,30.38,West,269,0.0,0.0,71,0.00,,---,0.00,VWS V14.01,2014-02-04 05:04:00,
2014-02-03 23:07:00,6.7,-0.7,30.38,West,269,0.0,0.0,71,0.00,,---,0.00,VWS V14.01,2014-02-04 05:07:00,
2014-02-03 23:08:00,6.7,-0.5,30.39,West,269,0.0,0.0,72,0.00,,---,0.00,VWS V14.01,2014-02-04 05:08:00,
2014-02-03 23:09:00,6.1,-1.0,30.39,West,269,0.0,0.0,72,0.00,,---,0.00,VWS V14.01,2014-02-04 05:09:00,
2014-02-03 23:14:00,5.8,-2.3,30.39,SSW,208,2.0,2.0,69,0.00,,---,0.00,VWS V14.01,2014-02-04 05:14:00,
2014-02-03 23:19:00,6.5,-1.4,30.40,WSW,242,2.2,2.2,69,0.00,,---,0.00,VWS V14.01,2014-02-04 05:19:00,
2014-02-03 23:24:00,6.8,-1.2,30.40,WSW,246,3.0,3.0,69,0.00,,---,0.00,VWS V14.01,2014-02-04 05:24:00,
2014-02-03 23:29:00,6.7,-1.3,30.40,West,270,0.0,2.2,69,0.00,,---,0.00,VWS V14.01,2014-02-04 05:29:00,
2014-02-03 23:34:00,6.8,-1.3,30.40,West,270,1.1,1.1,69,0.00,,---,0.00,VWS V14.01,2014-02-04 05:34:00,
2014-02-03 23:39:00,7.0,-1.0,30.40,WSW,245,1.1,1.8,69,0.00,,---,0.00,VWS V14.01,2014-02-04 05:39:00,
2014-02-03 23:44:00,6.9,-1.2,30.40,WSW,245,0.0,0.0,69,0.00,,---,0.00,VWS V14.01,2014-02-04 05:44:00,
2014-02-03 23:49:00,6.8,-1.3,30.40,WNW,284,0.0,0.0,69,0.00,,---,0.00,VWS V14.01,2014-02-04 05:49:00,
2014-02-03 23:54:00,6.1,-2.2,30.40,NNW,333,0.0,0.0,68,0.00,,---,0.00,VWS V14.01,2014-02-04 05:54:00,
2014-02-03 23:59:00,6.4,-2.0,30.40,NW,312,1.1,1.1,68,0.00,,---,0.00,VWS V14.01,2014-02-04 05:59:00,